Location: Buckland
(65.9785°N, 161.1281°W)
Time: 15:02:58
(UTC+00:00)

Transit 4A - Pass Details

Date: 05 October 2022
Orbit: 871 x 972 km, 66.8° (Epoch: 29 November)

Event Time Altitude Azimuth Distance (km) Brightness Sun altitude
Exits shadow 14:22:01 14° 289° (WNW) 2,287 9.6 -17.3°
Maximum altitude 14:27:11 80° 205° (SSW) 905 7.7 -16.8°
Drops below altitude 10° 14:33:03 10° 119° (ESE) 2,532 10.7 -16.3°
Sets 14:35:31 0° 118° (ESE) 3,464 11.4 -16.1°
